| time (UTC) | temp C | wind direction | speed KPH | gust KPH | rain 1hr cm | rain 24hr cm | rain mn cm | humidity % | barometer mb |
| 20260509070412 | 12 | 359 | 4.8 | 8.0 | 0.00 | 0.00 | 0.00 | 73 | 1018.6 |
| 20260509064914 | 12 | 238 | 4.8 | 8.0 | 0.00 | 0.00 | 0.00 | 73 | 1018.5 |
| 20260509061912 | 12 | 107 | 3.2 | 6.4 | 0.00 | 0.00 | 0.00 | 75 | 1018.3 |
| 20260509060416 | 11 | 268 | 1.6 | 3.2 | 0.00 | 0.00 | 0.00 | 75 | 1018.0 |
| 20260509054913 | 11 | 112 | 3.2 | 4.8 | 0.00 | 0.00 | 0.00 | 77 | 1018.0 |
| 20260509053413 | 10 | 151 | 1.6 | 4.8 | 0.00 | 0.00 | 0.00 | 80 | 1017.7 |
| 20260509051912 | 10 | 160 | 1.6 | 3.2 | 0.00 | 0.00 | 0.00 | 82 | 1017.7 |
| 20260509041913 | 8 | 88 | 1.6 | 3.2 | 0.00 | 0.00 | 0.00 | 86 | 1017.1 |
| 20260509040414 | 8 | 240 | 1.6 | 4.8 | 0.00 | 0.00 | 0.00 | 85 | 1017.1 |
| 20260509034913 | 8 | 116 | 0.0 | 1.6 | 0.00 | 0.00 | 0.00 | 84 | 1017.0 |
| 20260509033412 | 8 | 360 | 1.6 | 3.2 | 0.00 | 0.00 | 0.00 | 83 | 1017.0 |
| 20260509031913 | 8 | 196 | 1.6 | 3.2 | 0.00 | 0.00 | 0.00 | 82 | 1016.9 |
| 20260509030413 | 8 | 177 | 0.0 | 3.2 | 0.00 | 0.00 | 0.00 | 83 | 1016.6 |
| 20260509023412 | 8 | 359 | 1.6 | 3.2 | 0.00 | 0.00 | 0.00 | 82 | 1016.6 |
| 20260509021912 | 9 | 244 | 1.6 | 3.2 | 0.00 | 0.00 | 0.00 | 82 | 1016.6 |
| 20260509020412 | 9 | 88 | 1.6 | 3.2 | 0.00 | 0.00 | 0.00 | 83 | 1016.5 |
| 20260509014913 | 9 | 249 | 0.0 | 1.6 | 0.00 | 0.00 | 0.00 | 81 | 1016.5 |
| 20260509011912 | 10 | 146 | 1.6 | 4.8 | 0.00 | 0.00 | 0.00 | 76 | 1016.6 |
| 20260509010414 | 10 | 45 | 0.0 | 1.6 | 0.00 | 0.00 | 0.00 | 76 | 1016.5 |
| 20260509004913 | 11 | 359 | 1.6 | 3.2 | 0.00 | 0.03 | 0.00 | 76 | 1016.6 |
| 20260509003413 | 11 | 232 | 0.0 | 1.6 | 0.00 | 0.03 | 0.00 | 74 | 1016.7 |
| 20260509000413 | 11 | 1 | 1.6 | 3.2 | 0.00 | 0.03 | 0.00 | 72 | 1016.9 |
| 20260508234913 | 11 | 45 | 0.0 | 1.6 | 0.00 | 0.03 | 0.00 | 74 | 1016.9 |
| 20260508230413 | 11 | 360 | 0.0 | 1.6 | 0.00 | 0.03 | 0.00 | 77 | 1017.0 |
| 20260508223412 | 11 | 45 | 0.0 | 1.6 | 0.00 | 0.03 | 0.00 | 74 | 1017.0 |
| 20260508221913 | 12 | 178 | 0.0 | 3.2 | 0.00 | 0.03 | 0.00 | 72 | 1017.0 |
| 20260508214913 | 12 | 88 | 1.6 | 3.2 | 0.00 | 0.03 | 0.03 | 69 | 1016.9 |
| 20260508213412 | 12 | 88 | 1.6 | 4.8 | 0.00 | 0.03 | 0.03 | 68 | 1016.9 |
| 20260508211913 | 13 | 81 | 1.6 | 6.4 | 0.00 | 0.03 | 0.03 | 68 | 1016.8 |
| 20260508210414 | 13 | 71 | 1.6 | 3.2 | 0.00 | 0.03 | 0.03 | 68 | 1016.9 |
| 20260508203412 | 13 | 107 | 1.6 | 4.8 | 0.00 | 0.03 | 0.03 | 68 | 1016.9 |
| 20260508201912 | 13 | 78 | 1.6 | 6.4 | 0.00 | 0.03 | 0.03 | 67 | 1016.8 |
| 20260508200413 | 13 | 89 | 3.2 | 4.8 | 0.00 | 0.03 | 0.03 | 66 | 1016.8 |
| 20260508194913 | 14 | 104 | 1.6 | 3.2 | 0.00 | 0.03 | 0.03 | 65 | 1016.6 |
| 20260508193412 | 14 | 80 | 1.6 | 4.8 | 0.00 | 0.03 | 0.03 | 64 | 1016.4 |
| 20260508191912 | 15 | 31 | 3.2 | 6.4 | 0.00 | 0.03 | 0.03 | 63 | 1016.3 |
| 20260508184912 | 15 | 97 | 3.2 | 6.4 | 0.00 | 0.03 | 0.03 | 61 | 1016.1 |
| 20260508183412 | 16 | 313 | 1.6 | 6.4 | 0.00 | 0.03 | 0.03 | 59 | 1015.9 |
| 20260508181912 | 16 | 80 | 1.6 | 6.4 | 0.00 | 0.03 | 0.03 | 58 | 1015.6 |
| 20260508180413 | 16 | 52 | 4.8 | 11.3 | 0.00 | 0.03 | 0.03 | 57 | 1015.5 |
| 20260508174914 | 17 | 67 | 3.2 | 11.3 | 0.00 | 0.23 | 0.03 | 56 | 1015.5 |
| 20260508173414 | 17 | 71 | 4.8 | 9.7 | 0.00 | 0.23 | 0.03 | 55 | 1015.5 |
| 20260508170412 | 17 | 32 | 6.4 | 11.3 | 0.00 | 0.23 | 0.03 | 52 | 1015.2 |
| 20260508161913 | 18 | 97 | 12.9 | 20.9 | 0.00 | 0.28 | 0.03 | 51 | 1015.1 |
| 20260508160413 | 18 | 106 | 6.4 | 11.3 | 0.00 | 0.28 | 0.03 | 51 | 1015.1 |
| 20260508154912 | 18 | 102 | 6.4 | 12.9 | 0.00 | 0.28 | 0.03 | 51 | 1015.3 |
| 20260508153412 | 18 | 48 | 6.4 | 14.5 | 0.00 | 0.28 | 0.03 | 50 | 1015.2 |
| 20260508151913 | 18 | 83 | 3.2 | 11.3 | 0.00 | 0.28 | 0.03 | 49 | 1015.3 |
| 20260508150412 | 18 | 359 | 4.8 | 17.7 | 0.00 | 0.28 | 0.03 | 52 | 1015.4 |
| 20260508143413 | 18 | 100 | 8.0 | 11.3 | 0.00 | 0.28 | 0.03 | 51 | 1015.7 |
| 20260508141913 | 18 | 86 | 9.7 | 14.5 | 0.00 | 0.28 | 0.03 | 51 | 1015.7 |
| 20260508140412 | 18 | 100 | 3.2 | 12.9 | 0.00 | 0.28 | 0.03 | 51 | 1015.7 |
| 20260508131913 | 18 | 96 | 4.8 | 12.9 | 0.00 | 0.28 | 0.03 | 53 | 1015.9 |
| 20260508130412 | 17 | 62 | 4.8 | 12.9 | 0.00 | 0.28 | 0.03 | 55 | 1016.1 |
| 20260508121913 | 17 | 310 | 3.2 | 8.0 | 0.00 | 0.28 | 0.03 | 55 | 1016.3 |
| 20260508114913 | 16 | 73 | 6.4 | 9.7 | 0.00 | 0.28 | 0.03 | 58 | 1016.4 |
| 20260508111912 | 16 | 121 | 4.8 | 9.7 | 0.00 | 0.28 | 0.03 | 57 | 1016.5 |
| 20260508110412 | 16 | 50 | 6.4 | 11.3 | 0.00 | 0.28 | 0.03 | 59 | 1016.6 |
| 20260508103413 | 16 | 82 | 3.2 | 14.5 | 0.00 | 0.28 | 0.03 | 64 | 1016.8 |
| 20260508100415 | 15 | 40 | 8.0 | 14.5 | 0.00 | 0.28 | 0.03 | 65 | 1017.0 |
| 20260508094914 | 15 | 27 | 6.4 | 14.5 | 0.00 | 0.28 | 0.03 | 67 | 1016.9 |
| 20260508091913 | 14 | 103 | 3.2 | 11.3 | 0.00 | 0.28 | 0.03 | 71 | 1017.2 |
| 20260508090413 | 13 | 41 | 6.4 | 11.3 | 0.00 | 0.28 | 0.03 | 70 | 1017.3 |
| 20260508084912 | 13 | 116 | 4.8 | 12.9 | 0.00 | 0.28 | 0.03 | 73 | 1017.4 |
| 20260508083412 | 13 | 88 | 4.8 | 9.7 | 0.00 | 0.28 | 0.03 | 74 | 1017.1 |
| 20260508080412 | 11 | 268 | 3.2 | 11.3 | 0.00 | 0.28 | 0.03 | 83 | 1017.2 |
| 20260508074912 | 11 | 123 | 6.4 | 12.9 | 0.00 | 0.33 | 0.03 | 84 | 1017.3 |
| 20260508073411 | 11 | 46 | 4.8 | 11.3 | 0.00 | 0.33 | 0.03 | 90 | 1017.3 |